Time,TemperatureF,DewpointF,PressureIn,WindDirection,WindDirectionDegrees,WindSpeedMPH,WindSpeedGustMPH,Humidity,HourlyPrecipIn,Conditions,Clouds,dailyrainin,SolarRadiationWatts/m^2,SoftwareType,DateUTC
2013-04-19 00:01:00,29.0,12.0,-100.00,North,3,4.0,5.0,49,-99.99,,,-99.99,0.000000,,2013-04-19 06:01:00,
2013-04-19 00:11:00,29.0,13.0,-100.00,North,350,3.0,4.0,50,-99.99,,,-99.99,0.000000,,2013-04-19 06:11:00,
2013-04-19 00:22:00,29.0,14.0,-100.00,NNE,12,3.0,3.0,52,-99.99,,,-99.99,0.000000,,2013-04-19 06:22:00,
2013-04-19 00:31:00,29.0,14.0,-100.00,WNW,288,0.0,2.0,53,-99.99,,,-99.99,0.000000,,2013-04-19 06:31:00,
2013-04-19 00:42:00,26.0,14.0,-100.00,SW,224,2.0,3.0,59,-99.99,,,-99.99,0.010000,,2013-04-19 06:42:00,
2013-04-19 00:52:00,28.0,12.0,-100.00,West,260,1.0,2.0,51,-99.99,,,-99.99,0.060000,,2013-04-19 06:52:00,
2013-04-19 01:01:00,27.0,14.0,-100.00,North,353,0.0,2.0,57,-99.99,,,-99.99,0.070000,,2013-04-19 07:01:00,
2013-04-19 01:12:00,27.0,14.0,-100.00,NE,35,1.0,2.0,58,-99.99,,,-99.99,0.040000,,2013-04-19 07:12:00,
2013-04-19 01:21:00,27.0,14.0,-100.00,NNE,21,3.0,3.0,57,-99.99,,,-99.99,0.020000,,2013-04-19 07:21:00,
2013-04-19 01:31:00,25.0,14.0,-100.00,NE,56,0.0,2.0,61,-99.99,,,-99.99,0.040000,,2013-04-19 07:31:00,
2013-04-19 01:42:00,25.0,14.0,-100.00,NE,56,0.0,2.0,61,-99.99,,,-99.99,0.040000,,2013-04-19 07:42:00,
2013-04-19 01:52:00,25.0,14.0,-100.00,North,5,0.0,2.0,64,-99.99,,,-99.99,0.010000,,2013-04-19 07:52:00,
2013-04-19 02:02:00,24.0,14.0,-100.00,NW,310,2.0,2.0,65,-99.99,,,-99.99,0.020000,,2013-04-19 08:02:00,
2013-04-19 02:12:00,24.0,14.0,-100.00,North,3,4.0,4.0,67,-99.99,,,-99.99,0.060000,,2013-04-19 08:12:00,
2013-04-19 02:21:00,26.0,14.0,-100.00,NNE,21,3.0,4.0,58,-99.99,,,-99.99,0.030000,,2013-04-19 08:21:00,
2013-04-19 02:32:00,26.0,16.0,-100.00,North,3,4.0,4.0,63,-99.99,,,-99.99,0.050000,,2013-04-19 08:32:00,
2013-04-19 02:42:00,24.0,15.0,-100.00,NNW,347,3.0,3.0,68,-99.99,,,-99.99,0.070000,,2013-04-19 08:42:00,
2013-04-19 02:51:00,25.0,16.0,-100.00,North,9,4.0,5.0,67,-99.99,,,-99.99,0.020000,,2013-04-19 08:51:00,
2013-04-19 03:01:00,24.0,15.0,-100.00,North,0,3.0,4.0,67,-99.99,,,-99.99,0.070000,,2013-04-19 09:01:00,
2013-04-19 03:11:00,25.0,15.0,-100.00,WNW,288,1.0,3.0,67,-99.99,,,-99.99,0.040000,,2013-04-19 09:11:00,
2013-04-19 03:21:00,23.0,15.0,-100.00,NNW,341,2.0,3.0,68,-99.99,,,-99.99,0.070000,,2013-04-19 09:21:00,
2013-04-19 03:32:00,23.0,15.0,-100.00,North,4,4.0,4.0,70,-99.99,,,-99.99,0.130000,,2013-04-19 09:32:00,
2013-04-19 03:42:00,24.0,15.0,-100.00,NNE,32,4.0,4.0,68,-99.99,,,-99.99,0.130000,,2013-04-19 09:42:00,
2013-04-19 03:52:00,24.0,16.0,-100.00,NNE,12,5.0,5.0,69,-99.99,,,-99.99,0.100000,,2013-04-19 09:52:00,
2013-04-19 04:13:00,23.0,13.0,-100.00,North,5,4.0,4.0,65,-99.99,,,-99.99,0.150000,,2013-04-19 10:13:00,
2013-04-19 04:23:00,23.0,13.0,-100.00,NW,315,3.0,4.0,65,-99.99,,,-99.99,0.160000,,2013-04-19 10:23:00,
2013-04-19 04:33:00,24.0,14.0,-100.00,North,356,2.0,3.0,63,-99.99,,,-99.99,0.140000,,2013-04-19 10:33:00,
2013-04-19 04:42:00,23.0,13.0,-100.00,WNW,292,3.0,4.0,65,-99.99,,,-99.99,0.090000,,2013-04-19 10:42:00,
2013-04-19 04:52:00,23.0,14.0,-100.00,ESE,107,1.0,2.0,67,-99.99,,,-99.99,0.090000,,2013-04-19 10:52:00,
2013-04-19 05:02:00,24.0,14.0,-100.00,SSE,168,1.0,2.0,65,-99.99,,,-99.99,0.160000,,2013-04-19 11:02:00,
2013-04-19 05:11:00,24.0,14.0,-100.00,North,0,0.0,2.0,66,-99.99,,,-99.99,0.180000,,2013-04-19 11:11:00,
2013-04-19 05:21:00,24.0,14.0,-100.00,NE,54,0.0,1.0,65,-99.99,,,-99.99,0.180000,,2013-04-19 11:21:00,
2013-04-19 05:32:00,23.0,14.0,-100.00,East,93,0.0,1.0,67,-99.99,,,-99.99,0.130000,,2013-04-19 11:32:00,
2013-04-19 05:42:00,23.0,14.0,-100.00,NE,49,4.0,4.0,67,-99.99,,,-99.99,0.130000,,2013-04-19 11:42:00,
2013-04-19 05:52:00,21.0,12.0,-100.00,WNW,291,2.0,3.0,68,-99.99,,,-99.99,0.070000,,2013-04-19 11:52:00,
2013-04-19 06:02:00,22.0,14.0,-100.00,NNE,15,2.0,2.0,72,-99.99,,,-99.99,0.100000,,2013-04-19 12:02:00,
2013-04-19 06:12:00,22.0,13.0,-100.00,NW,319,0.0,1.0,69,-99.99,,,-99.99,0.120000,,2013-04-19 12:12:00,
2013-04-19 06:22:00,23.0,15.0,-100.00,ESE,123,1.0,2.0,70,-99.99,,,-99.99,0.130000,,2013-04-19 12:22:00,
2013-04-19 06:32:00,22.0,15.0,-100.00,NE,50,2.0,2.0,71,-99.99,,,-99.99,0.140000,,2013-04-19 12:32:00,
2013-04-19 06:42:00,22.0,14.0,-100.00,NNW,330,3.0,4.0,72,-99.99,,,-99.99,0.070000,,2013-04-19 12:42:00,
2013-04-19 06:52:00,21.0,14.0,-100.00,NNW,342,3.0,3.0,73,-99.99,,,-99.99,0.200000,,2013-04-19 12:52:00,
2013-04-19 07:01:00,21.0,14.0,-100.00,NNW,328,1.0,2.0,73,-99.99,,,-99.99,0.370000,,2013-04-19 13:01:00,
2013-04-19 07:11:00,22.0,15.0,-100.00,North,353,2.0,2.0,74,-99.99,,,-99.99,1.370000,,2013-04-19 13:11:00,
2013-04-19 07:21:00,22.0,15.0,-100.00,NW,306,2.0,2.0,72,-99.99,,,-99.99,4.090000,,2013-04-19 13:21:00,
2013-04-19 07:32:00,23.0,16.0,-100.00,East,89,1.0,3.0,73,-99.99,,,-99.99,9.690000,,2013-04-19 13:32:00,
2013-04-19 07:42:00,22.0,14.0,-100.00,North,353,3.0,5.0,73,-99.99,,,-99.99,21.860001,,2013-04-19 13:42:00,
2013-04-19 07:52:00,23.0,16.0,-100.00,North,9,3.0,4.0,74,-99.99,,,-99.99,29.660000,,2013-04-19 13:52:00,
2013-04-19 08:01:00,22.0,15.0,-100.00,NW,326,2.0,3.0,73,-99.99,,,-99.99,44.029999,,2013-04-19 14:01:00,
2013-04-19 08:11:00,23.0,16.0,-100.00,NNW,337,1.0,2.0,72,-99.99,,,-99.99,49.939999,,2013-04-19 14:11:00,
2013-04-19 08:21:00,25.0,17.0,-100.00,NNW,336,1.0,3.0,71,-99.99,,,-99.99,58.110001,,2013-04-19 14:21:00,
2013-04-19 08:31:00,25.0,18.0,-100.00,SSW,200,2.0,3.0,73,-99.99,,,-99.99,81.699997,,2013-04-19 14:31:00,
2013-04-19 08:42:00,26.0,17.0,-100.00,SE,140,3.0,4.0,68,-99.99,,,-99.99,121.500000,,2013-04-19 14:42:00,
2013-04-19 08:52:00,27.0,16.0,-100.00,SSE,153,5.0,5.0,62,-99.99,,,-99.99,111.099998,,2013-04-19 14:52:00,
2013-04-19 09:01:00,27.0,17.0,-100.00,South,188,4.0,6.0,63,-99.99,,,-99.99,174.500000,,2013-04-19 15:01:00,
2013-04-19 09:11:00,27.0,17.0,-100.00,SSW,202,2.0,3.0,64,-99.99,,,-99.99,131.500000,,2013-04-19 15:11:00,
2013-04-19 09:21:00,28.0,16.0,-100.00,North,0,0.0,2.0,61,-99.99,,,-99.99,138.199997,,2013-04-19 15:21:00,
2013-04-19 09:33:00,29.0,17.0,-100.00,ENE,77,2.0,3.0,60,-99.99,,,-99.99,167.100006,,2013-04-19 15:33:00,
2013-04-19 09:43:00,30.0,16.0,-100.00,WSW,247,2.0,3.0,57,-99.99,,,-99.99,165.100006,,2013-04-19 15:43:00,
2013-04-19 09:52:00,30.0,16.0,-100.00,SSW,212,1.0,2.0,54,-99.99,,,-99.99,177.100006,,2013-04-19 15:52:00,
2013-04-19 10:03:00,32.0,17.0,-100.00,South,172,4.0,5.0,53,-99.99,,,-99.99,192.699997,,2013-04-19 16:03:00,
2013-04-19 10:12:00,32.0,17.0,-100.00,South,185,4.0,5.0,53,-99.99,,,-99.99,214.500000,,2013-04-19 16:12:00,
2013-04-19 10:23:00,32.0,16.0,-100.00,SSW,199,2.0,4.0,50,-99.99,,,-99.99,216.399994,,2013-04-19 16:23:00,
2013-04-19 10:32:00,34.0,16.0,-100.00,East,79,1.0,2.0,47,-99.99,,,-99.99,221.800003,,2013-04-19 16:32:00,
2013-04-19 10:42:00,34.0,15.0,-100.00,East,93,0.0,2.0,45,-99.99,,,-99.99,277.299988,,2013-04-19 16:42:00,
2013-04-19 10:52:00,35.0,16.0,-100.00,ESE,114,1.0,2.0,44,-99.99,,,-99.99,250.699997,,2013-04-19 16:52:00,
2013-04-19 11:02:00,37.0,14.0,-100.00,SSE,160,3.0,4.0,38,-99.99,,,-99.99,272.600006,,2013-04-19 17:02:00,
2013-04-19 11:11:00,38.0,15.0,-100.00,South,174,6.0,8.0,38,-99.99,,,-99.99,286.299988,,2013-04-19 17:11:00,
2013-04-19 11:21:00,38.0,14.0,-100.00,South,189,9.0,10.0,35,-99.99,,,-99.99,284.399994,,2013-04-19 17:21:00,
2013-04-19 11:32:00,40.0,15.0,-100.00,SSW,196,4.0,6.0,36,-99.99,,,-99.99,466.799988,,2013-04-19 17:32:00,
2013-04-19 11:42:00,41.0,15.0,-100.00,South,178,6.0,11.0,34,-99.99,,,-99.99,490.399994,,2013-04-19 17:42:00,
2013-04-19 11:52:00,43.0,16.0,-100.00,South,189,9.0,13.0,32,-99.99,,,-99.99,841.000000,,2013-04-19 17:52:00,
2013-04-19 12:01:00,42.0,14.0,-100.00,South,181,8.0,10.0,31,-99.99,,,-99.99,412.799988,,2013-04-19 18:01:00,
2013-04-19 12:13:00,41.0,14.0,-100.00,SW,223,6.0,9.0,32,-99.99,,,-99.99,428.799988,,2013-04-19 18:13:00,
2013-04-19 12:22:00,40.0,14.0,-100.00,WSW,237,5.0,7.0,33,-99.99,,,-99.99,256.500000,,2013-04-19 18:22:00,
2013-04-19 12:32:00,41.0,15.0,-100.00,South,176,1.0,5.0,34,-99.99,,,-99.99,245.600006,,2013-04-19 18:32:00,
2013-04-19 12:42:00,43.0,16.0,-100.00,SSW,196,4.0,5.0,33,-99.99,,,-99.99,264.299988,,2013-04-19 18:42:00,
2013-04-19 12:52:00,43.0,18.0,-100.00,SSW,196,2.0,5.0,35,-99.99,,,-99.99,344.899994,,2013-04-19 18:52:00,
2013-04-19 13:01:00,43.0,17.0,-100.00,SE,141,7.0,9.0,34,-99.99,,,-99.99,377.700012,,2013-04-19 19:01:00,
2013-04-19 13:11:00,44.0,19.0,-100.00,SW,216,5.0,6.0,36,-99.99,,,-99.99,355.299988,,2013-04-19 19:11:00,
2013-04-19 13:21:00,45.0,19.0,-100.00,SSW,209,2.0,6.0,34,-99.99,,,-99.99,446.700012,,2013-04-19 19:21:00,
2013-04-19 13:31:00,46.0,20.0,-100.00,SE,142,5.0,7.0,34,-99.99,,,-99.99,635.799988,,2013-04-19 19:31:00,
2013-04-19 13:41:00,48.0,22.0,-100.00,SE,125,3.0,9.0,35,-99.99,,,-99.99,673.700012,,2013-04-19 19:41:00,
2013-04-19 14:01:00,47.0,23.0,-100.00,SE,136,8.0,9.0,38,-99.99,,,-99.99,679.500000,,2013-04-19 20:01:00,
2013-04-19 14:11:00,48.0,24.0,-100.00,SE,137,8.0,14.0,38,-99.99,,,-99.99,482.700012,,2013-04-19 20:11:00,
2013-04-19 14:22:00,48.0,24.0,-100.00,SSW,211,9.0,14.0,38,-99.99,,,-99.99,813.000000,,2013-04-19 20:22:00,
2013-04-19 14:31:00,51.0,24.0,-100.00,SSE,161,9.0,14.0,34,-99.99,,,-99.99,895.000000,,2013-04-19 20:31:00,
2013-04-19 14:41:00,50.0,23.0,-100.00,SSW,201,9.0,15.0,34,-99.99,,,-99.99,375.600006,,2013-04-19 20:41:00,
2013-04-19 14:51:00,49.0,25.0,-100.00,South,187,12.0,15.0,38,-99.99,,,-99.99,386.700012,,2013-04-19 20:51:00,
2013-04-19 15:01:00,50.0,24.0,-100.00,SSE,168,15.0,18.0,35,-99.99,,,-99.99,551.299988,,2013-04-19 21:01:00,
2013-04-19 15:11:00,50.0,25.0,-100.00,South,176,22.0,25.0,37,-99.99,,,-99.99,374.799988,,2013-04-19 21:11:00,
2013-04-19 15:21:00,50.0,24.0,-100.00,SSW,194,12.0,20.0,35,-99.99,,,-99.99,371.299988,,2013-04-19 21:21:00,
2013-04-19 15:32:00,50.0,24.0,-100.00,SSW,196,16.0,20.0,35,-99.99,,,-99.99,399.700012,,2013-04-19 21:32:00,
2013-04-19 15:42:00,50.0,24.0,-100.00,SSW,196,16.0,20.0,35,-99.99,,,-99.99,399.700012,,2013-04-19 21:42:00,
2013-04-19 15:52:00,49.0,25.0,-100.00,SSW,199,17.0,24.0,38,-99.99,,,-99.99,331.500000,,2013-04-19 21:52:00,
2013-04-19 16:02:00,48.0,25.0,-100.00,SW,225,12.0,20.0,39,-99.99,,,-99.99,275.000000,,2013-04-19 22:02:00,
2013-04-19 16:12:00,48.0,24.0,-100.00,SW,220,13.0,18.0,39,-99.99,,,-99.99,180.899994,,2013-04-19 22:12:00,
2013-04-19 16:22:00,48.0,25.0,-100.00,SW,225,10.0,16.0,39,-99.99,,,-99.99,187.199997,,2013-04-19 22:22:00,
2013-04-19 16:42:00,47.0,25.0,-100.00,SW,234,12.0,20.0,40,-99.99,,,-99.99,241.000000,,2013-04-19 22:42:00,
2013-04-19 16:52:00,48.0,25.0,-100.00,WSW,257,10.0,14.0,39,-99.99,,,-99.99,284.200012,,2013-04-19 22:52:00,
2013-04-19 17:02:00,48.0,24.0,-100.00,WSW,249,10.0,14.0,37,-99.99,,,-99.99,332.399994,,2013-04-19 23:02:00,
2013-04-19 17:11:00,48.0,24.0,-100.00,SW,225,13.0,20.0,39,-99.99,,,-99.99,257.000000,,2013-04-19 23:11:00,
2013-04-19 17:22:00,48.0,25.0,-100.00,SW,218,11.0,16.0,40,-99.99,,,-99.99,223.399994,,2013-04-19 23:22:00,
2013-04-19 17:31:00,47.0,25.0,-100.00,SW,229,12.0,16.0,41,-99.99,,,-99.99,147.699997,,2013-04-19 23:31:00,
2013-04-19 17:42:00,47.0,25.0,-100.00,SW,234,7.0,11.0,40,-99.99,,,-99.99,168.500000,,2013-04-19 23:42:00,
2013-04-19 17:52:00,47.0,25.0,-100.00,SW,227,9.0,13.0,42,-99.99,,,-99.99,140.500000,,2013-04-19 23:52:00,
2013-04-19 18:01:00,47.0,25.0,-100.00,SSW,209,8.0,14.0,42,-99.99,,,-99.99,127.099998,,2013-04-20 00:01:00,
2013-04-19 18:11:00,47.0,27.0,-100.00,SW,234,9.0,11.0,46,-99.99,,,-99.99,83.099998,,2013-04-20 00:11:00,
2013-04-19 18:21:00,46.0,27.0,-100.00,WSW,237,8.0,12.0,47,-99.99,,,-99.99,79.540001,,2013-04-20 00:21:00,
2013-04-19 18:31:00,46.0,28.0,-100.00,SW,232,8.0,12.0,48,-99.99,,,-99.99,74.949997,,2013-04-20 00:31:00,
2013-04-19 18:41:00,46.0,28.0,-100.00,SW,232,8.0,12.0,48,-99.99,,,-99.99,74.949997,,2013-04-20 00:41:00,
2013-04-19 18:51:00,46.0,28.0,-100.00,SSW,199,10.0,11.0,49,-99.99,,,-99.99,123.900002,,2013-04-20 00:51:00,
2013-04-19 19:01:00,46.0,28.0,-100.00,SSW,195,9.0,10.0,49,-99.99,,,-99.99,82.500000,,2013-04-20 01:01:00,
2013-04-19 19:11:00,46.0,28.0,-100.00,SW,214,6.0,10.0,48,-99.99,,,-99.99,117.099998,,2013-04-20 01:11:00,
2013-04-19 19:21:00,46.0,28.0,-100.00,SSW,195,7.0,7.0,49,-99.99,,,-99.99,89.000000,,2013-04-20 01:21:00,
2013-04-19 19:32:00,45.0,29.0,-100.00,South,180,10.0,11.0,52,-99.99,,,-99.99,53.540001,,2013-04-20 01:32:00,
2013-04-19 19:42:00,45.0,29.0,-100.00,South,178,11.0,13.0,54,-99.99,,,-99.99,45.000000,,2013-04-20 01:42:00,
2013-04-19 19:52:00,44.0,30.0,-100.00,South,173,11.0,12.0,57,-99.99,,,-99.99,31.830000,,2013-04-20 01:52:00,
2013-04-19 20:01:00,44.0,30.0,-100.00,South,173,10.0,12.0,58,-99.99,,,-99.99,54.410000,,2013-04-20 02:01:00,
2013-04-19 20:11:00,43.0,30.0,-100.00,South,180,10.0,12.0,59,-99.99,,,-99.99,24.990000,,2013-04-20 02:11:00,
2013-04-19 20:21:00,43.0,30.0,-100.00,South,169,8.0,10.0,60,-99.99,,,-99.99,6.040000,,2013-04-20 02:21:00,
2013-04-19 20:32:00,43.0,30.0,-100.00,SE,142,7.0,7.0,59,-99.99,,,-99.99,4.100000,,2013-04-20 02:32:00,
2013-04-19 20:42:00,43.0,30.0,-100.00,SE,128,4.0,5.0,59,-99.99,,,-99.99,1.890000,,2013-04-20 02:42:00,
2013-04-19 20:52:00,43.0,30.0,-100.00,ESE,118,2.0,3.0,59,-99.99,,,-99.99,0.530000,,2013-04-20 02:52:00,
2013-04-19 21:01:00,42.0,30.0,-100.00,North,353,3.0,5.0,61,-99.99,,,-99.99,0.100000,,2013-04-20 03:01:00,
2013-04-19 21:11:00,41.0,29.0,-100.00,WNW,289,2.0,3.0,62,-99.99,,,-99.99,0.000000,,2013-04-20 03:11:00,
2013-04-19 21:21:00,41.0,29.0,-100.00,NW,319,2.0,4.0,63,-99.99,,,-99.99,0.000000,,2013-04-20 03:21:00,
2013-04-19 21:33:00,41.0,30.0,-100.00,North,0,0.0,1.0,63,-99.99,,,-99.99,0.000000,,2013-04-20 03:33:00,
2013-04-19 21:43:00,41.0,30.0,-100.00,SW,228,0.0,2.0,64,-99.99,,,-99.99,0.000000,,2013-04-20 03:43:00,
2013-04-19 21:52:00,41.0,30.0,-100.00,South,180,2.0,5.0,64,-99.99,,,-99.99,0.000000,,2013-04-20 03:52:00,
2013-04-19 22:02:00,41.0,30.0,-100.00,South,173,3.0,4.0,65,-99.99,,,-99.99,0.000000,,2013-04-20 04:02:00,
2013-04-19 22:12:00,41.0,30.0,-100.00,North,0,0.0,1.0,65,-99.99,,,-99.99,0.000000,,2013-04-20 04:12:00,
2013-04-19 22:23:00,40.0,30.0,-100.00,NW,319,3.0,3.0,67,-99.99,,,-99.99,0.000000,,2013-04-20 04:23:00,
2013-04-19 22:32:00,40.0,30.0,-100.00,NE,45,4.0,5.0,67,-99.99,,,-99.99,0.000000,,2013-04-20 04:32:00,
2013-04-19 22:42:00,41.0,30.0,-100.00,ENE,75,4.0,5.0,65,-99.99,,,-99.99,0.000000,,2013-04-20 04:42:00,
2013-04-19 22:52:00,42.0,30.0,-100.00,East,84,3.0,4.0,63,-99.99,,,-99.99,0.000000,,2013-04-20 04:52:00,
2013-04-19 23:01:00,41.0,30.0,-100.00,SW,227,1.0,3.0,65,-99.99,,,-99.99,0.000000,,2013-04-20 05:01:00,
2013-04-19 23:12:00,40.0,30.0,-100.00,NNW,348,2.0,2.0,66,-99.99,,,-99.99,0.000000,,2013-04-20 05:12:00,
2013-04-19 23:21:00,40.0,31.0,-100.00,North,354,3.0,4.0,70,-99.99,,,-99.99,0.000000,,2013-04-20 05:21:00,
2013-04-19 23:32:00,38.0,30.0,-100.00,NNW,330,4.0,4.0,71,-99.99,,,-99.99,0.000000,,2013-04-20 05:32:00,
2013-04-19 23:42:00,39.0,31.0,-100.00,NE,39,2.0,3.0,72,-99.99,,,-99.99,0.000000,,2013-04-20 05:42:00,
2013-04-19 23:51:00,40.0,31.0,-100.00,NE,41,2.0,2.0,71,-99.99,,,-99.99,0.000000,,2013-04-20 05:51:00,